OPS 4682 DEB, 38455

Orbit data source: Space-Track

OPS 4682 DEB, 38455 is space debris in LEO originally from a launch on Sat, 03 Apr 1965 UTC launched from the Air Force Western Test Range (AFWTR). Debris objects in space refer to the collection of defunct objects orbiting the Earth. Examples of debris include non-operational satellites, rocket bodies, and fragments generated from explosions, collisions, or faulty payload assembly.

Loading next visibility...
Identifier
38455, 1965-027FL
Orbit
LEO
Country
Flag of USUS
Related business
Manufacturer
Unknown
Mission
Spacecraft
Bus & Motor
Unknown
Mass
Unknown
Launch date (UTC)
1965-04-03 (61 years ago)
Launch vehicle
Unknown
Launch site
Air Force Western Test Range (AFWTR)
Object type
Payload
Rocket body
Debris
Shape & HBR
Unknown shape, 0.1 m
Radar Cross Section
Medium (>0.1 m² and <1 m²)

Expand to show TLE details & history
Last TLE update: 2 days ago

TLE from 2 days ago
0 OPS 4682 DEB
1 38455U 65027FL  26173.28662124  .00000687  00000-0  23223-2 0  9990
2 38455  90.2361   4.4372 0028140  32.2338 328.0496 12.97910445585174
Epoch: 2026-06-22T06:52Z
TLE epoch observation values (Epoch: 2026-06-22T06:52:44.075Z)
Latitude
0.00002°
Longitude
-9.22116°
Altitude
1,254.917 km
Speed
7.236 km/s
True Right ascension
00h 17m 44s
True Declination
0° 00' 00"
Sunlit
Object was in daylight at epoch
Visualization orbit readout
Latitude
Unknown
Longitude
Unknown
Altitude
Unknown
Speed
Unknown
Apparent Right ascension
Unknown
Apparent Declination
Unknown
Sunlit
N/A
Visualization observer readout
Local Sidereal Time
21:55:16
Azimuth
Unknown
Elevation
Unknown
Doppler factor
Unknown
Orbital elements
Apogee altitude
1,288.929 km
Perigee altitude
1,245.9 km
Semi-major axis
7,645.552 km
Eccentricity
0.00281
Inclination
90.2361°
RAAN
4.4372°
Arg. of periapsis
32.2338°
True anomaly
327.87845°
Mean anomaly
328.0496°
Eccentric anomaly
327.96408°
Mean motion
3.24661 °/min
Orbital period
110.88 mins
BSTAR
0.0023223
Loading maneuver chart data...
Computing Atmospheric mass density...
Loading historical data...
Loading historical data...
Loading historical data...
Loading historical data...
Loading historical data...
Loading historical data...
Loading historical data...

Documentation

Showing up to 5 results
|